Location: Ar Ranvel
(48.3000°N, 4.8833°W)
Time: 13:32:38
(UTC+00:00)

Lacrosse 5 - Pass Details

Date: 16 June 2021
Orbit: 715 x 724 km, 57.0° (Epoch: 28 July)

Event Time Altitude Azimuth Distance (km) Brightness Sun altitude
Rises 21:03:35 0° 305° (NW) 3,126 7.3 -5.9°
Reaches altitude 10° 21:06:00 10° 301° (WNW) 2,204 5.9 -6.2°
Maximum altitude 21:10:58 58° 223° (SW) 833 2.2 -6.7°
Drops below altitude 10° 21:15:56 10° 145° (SE) 2,198 3.7 -7.3°
Enters shadow 21:16:11 - 145° (SE) 2,293 3.8 -7.3°
